Greater Peoria Regional Airport
KPIA : now visible

Airfield :











YOU CAN JOIN US ON...

 
LOGIN :

Register | Disclaimer

   EN    FR    IT 

 









Legend :    VFR   Marginal VFR   IFR   Intensive IFR   Very Intensive IFR
Visi :
Ceiling :
>= 8 km
>= 3000ft
5 to 8 km
1000 to 3000 ft
1500m to 5 km
500 to 1000 ft
800 to 1500m
200 to 500 ft
< 800m
< 200 ft
Symbols :   Thunderstorms  Fog  Heavy snow  Heavy precipitations  Wind > 20 kt






- Airport Elevation : 660 ft
- IATA code : PIA


KPIA - Greater Peoria Regional

CURRENT METAR :
  • 121654Z 05012G20KT 10SM CLR 15/00 A3048 RMK AO2 SLP323 T01500000

EXPIRED METARs :
  • 121554Z 11012G18KT 10SM CLR 14/M01 A3049 RMK AO2 SLP326 T01391011
  • 121454Z 08009G14KT 10SM CLR 13/M02 A3049 RMK AO2 SLP327 T01281017 50009

TAF KPIA
Valid from the 12 at 12:00 until the 13 at 12:00 UTC


121120Z 1212/1312 VRB03KT P6SM SKC
FM121800 06007KT P6SM BKN060
FM130200 VRB03KT P6SM SKC
KZAU FIR / North America



MET'MAP, your aeronautical weather chart ! - Copyright ORBIFLY December 2007 - Disclaimer

ORBIFLY MET'MAP TEAM :

Programming & Development : Alexandra Zaïnal
Concept & original design : Baudouin d'Aumeries
Assistance for programming : Marc-Olivier Méhu
Technical & hardware support : Manuel Goepfert

Contact : metmap@orbifly.com




SOURCES & CREDITS :

   NOAA       Earth
Advisory